Temp
9 9 9 9 8 8 8 8 8 8 8 8 8 8 8 7 7 7 7 7 7 7 7 7 7 7 7 7 7 6 6 6 6
9 9 9 9 8 8 8 8 8 8 8 8 8 8 7 7 7 7 7 7 7 7 7 7 6 7 7 7 6 5 5 5 5
9 8 8 8 8 8 8 8 8 8 8 7 7 7 7 7 7 7 7 6 6 6 7 6 6 6 6 6 6 6 5 5 5
8 8 8 8 8 8 8 8 8 7 7 7 7 7 7 7 7 7 7 6 6 6 6 6 6 6 6 6 6 6 5 5 5
8 8 8 8 8 8 8 8 8 7 7 7 7 7 7 7 7 7 7 6 6 6 6 6 6 6 6 6 6 6 6 5 5
8 8 8 8 8 8 8 7 7 7 7 7 7 7 7 7 7 7 7 6 6 6 6 6 6 6 6 6 6 6 6 6 6
8 8 8 8 8 8 7 7 7 7 7 7 7 7 7 7 7 7 7 6 6 6 6 6 6 6 6 6 6 6 6 6 5
8 7 7 7 7 7 7 7 7 7 7 7 7 7 6 6 6 6 6 6 6 6 6 6 6 6 6 6 5 5 5 5 5
7 7 7 7 7 7 7 7 7 6 6 6 6 6 6 6 6 6 6 6 6 5 5 5 5 5 5 5 5 5 5 5 5
7 7 7 7 7 7 6 6 6 6 6 6 6 6 6 5 5 5 5 5 5 5 5 5 5 5 5 5 4 4 4 4 4
7 7 7 6 6 6 6 6 6 6 6 6 6 5 5 5 5 5 5 5 5 5 5 5 4 4 4 4 4 4 4 4 4
6 6 6 6 6 6 6 6 6 6 5 5 5 5 5 4 4 4 4 4 4 4 4 4 4 4 4 4 4 4 3 3 3
6 6 6 6 6 6 6 6 5 5 5 5 5 4 4 4 4 4 4 4 4 4 4 3 3 3 3 3 3 3 3 3 3
6 6 6 6 6 6 5 5 5 5 4 4 4 4 4 4 3 3 3 3 3 3 3 3 3 3 3 3 3 3 3 3 3
5 6 5 5 6 6 5 5 5 4 4 4 4 4 4 3 3 3 2 2 2 2 2 2 2 2 2 2 2 2 2 2 2
5 5 5 5 5 5 5 4 4 4 4 4 3 3 3 3 3 2 2 2 2 2 2 2 2 2 2 2 2 2 2 2 2
5 5 5 4 5 5 5 4 4 4 3 3 3 3 3 3 2 2 2 2 2 2 1 1 1 1 1 1 1 1 1 1 1
4 4 4 4 4 4 4 4 3 3 3 3 2 2 2 2 2 2 2 1 1 1 1 1 1 1 1 1 1 1 1 1 1
4 4 4 4 4 4 4 3 3 3 3 2 2 1 1 1 1 1 1 1 1 1 1 0 0 0 0 0 0 1 1 1 1
3 4 4 4 4 4 3 3 3 3 2 2 2 1 1 1 1 1 1 1 1 0 0 -0 0 -0 -0 0 0 0 0 0 0
Height
3188 3187 3187 3187 3187 3187 3187 3188 3188 3188 3188 3188 3188 3188 3188 3188 3187 3188 3187 3187 3187 3186 3186 3184 3184 3184 3183 3183 3183 3183 3182 3182 3181
3188 3188 3187 3188 3188 3188 3188 3188 3188 3188 3188 3188 3188 3188 3188 3188 3187 3187 3186 3186 3186 3185 3185 3184 3184 3183 3183 3183 3182 3182 3181 3181 3181
3189 3189 3188 3188 3188 3189 3189 3189 3188 3188 3188 3188 3188 3188 3187 3187 3187 3186 3186 3186 3185 3184 3184 3184 3183 3182 3183 3182 3181 3181 3180 3180 3180
3190 3190 3189 3189 3189 3189 3189 3189 3189 3188 3188 3188 3188 3188 3188 3188 3187 3187 3186 3186 3185 3184 3183 3183 3182 3181 3181 3181 3180 3179 3179 3178 3178
3191 3190 3190 3190 3190 3190 3190 3189 3189 3189 3188 3187 3187 3187 3187 3186 3186 3186 3185 3184 3183 3183 3182 3181 3180 3179 3178 3178 3177 3176 3176 3175 3175
3190 3190 3190 3190 3190 3190 3189 3189 3188 3188 3187 3187 3186 3186 3185 3185 3184 3184 3183 3182 3181 3180 3179 3178 3177 3176 3175 3175 3175 3174 3173 3173 3173
3188 3189 3189 3189 3189 3189 3188 3188 3188 3187 3186 3186 3185 3184 3183 3183 3182 3181 3181 3180 3178 3178 3177 3176 3174 3173 3173 3173 3172 3171 3171 3170 3170
3187 3187 3187 3187 3186 3187 3187 3187 3186 3185 3185 3184 3184 3183 3182 3181 3180 3179 3178 3178 3176 3175 3174 3174 3173 3172 3171 3170 3169 3168 3168 3168 3168
3184 3184 3184 3184 3184 3184 3184 3184 3184 3183 3183 3182 3182 3181 3180 3179 3178 3177 3177 3176 3175 3173 3172 3171 3171 3170 3169 3168 3167 3166 3166 3165 3165
3180 3180 3180 3181 3181 3180 3181 3181 3182 3181 3181 3180 3179 3178 3177 3176 3175 3174 3173 3173 3172 3171 3170 3169 3168 3168 3167 3166 3165 3164 3163 3163 3162
3175 3175 3176 3176 3177 3177 3177 3178 3178 3178 3177 3177 3176 3174 3173 3172 3171 3171 3170 3169 3169 3168 3167 3167 3166 3165 3164 3163 3162 3161 3160 3160 3159
3170 3171 3171 3171 3172 3172 3172 3173 3173 3173 3173 3172 3171 3170 3169 3168 3168 3167 3166 3165 3165 3165 3164 3163 3162 3162 3161 3160 3159 3158 3157 3156 3155
3165 3165 3165 3166 3166 3167 3167 3168 3169 3169 3168 3168 3167 3166 3165 3164 3163 3163 3162 3161 3161 3160 3160 3159 3159 3158 3158 3157 3156 3155 3154 3152 3151
3158 3159 3159 3159 3160 3161 3162 3163 3163 3163 3163 3163 3162 3161 3160 3159 3159 3159 3158 3157 3157 3156 3156 3156 3155 3154 3153 3152 3151 3150 3148 3147 3145
3152 3153 3153 3153 3154 3156 3157 3157 3158 3158 3157 3158 3157 3156 3156 3155 3154 3154 3153 3152 3152 3152 3152 3151 3151 3150 3148 3147 3146 3145 3143 3142 3140
3145 3146 3146 3147 3148 3149 3151 3151 3151 3152 3151 3151 3152 3152 3151 3150 3150 3149 3149 3148 3147 3147 3147 3145 3145 3144 3142 3141 3140 3139 3137 3135 3133
3138 3139 3139 3140 3141 3142 3144 3145 3146 3145 3145 3145 3145 3146 3146 3145 3145 3144 3143 3142 3142 3141 3141 3139 3138 3137 3136 3134 3133 3132 3130 3128 3126
3130 3131 3133 3133 3133 3135 3136 3137 3138 3139 3138 3138 3138 3138 3139 3140 3139 3138 3137 3137 3136 3135 3134 3133 3132 3131 3129 3127 3126 3124 3123 3120 3118
3120 3122 3123 3125 3125 3126 3128 3129 3130 3131 3130 3130 3130 3130 3130 3131 3131 3131 3131 3130 3129 3128 3127 3126 3124 3123 3122 3120 3117 3116 3114 3112 3109
3109 3111 3113 3115 3116 3119 3120 3121 3121 3123 3122 3122 3123 3122 3122 3122 3122 3122 3122 3122 3120 3119 3118 3117 3116 3114 3112 3110 3108 3106 3104 3102 3100
Wind_Speed
11 10 9 7 6 5 5 5 5 4 3 2 2 2 1 2 2 3 4 5 6 5 5 6 7 7 6 5 4 5 5 5 4
10 9 9 9 8 6 6 5 5 5 4 4 4 4 3 4 4 4 5 6 6 6 6 8 8 9 8 7 4 5 5 4 2
10 9 9 8 8 7 7 6 6 5 5 5 4 4 4 3 4 4 5 5 6 7 7 7 7 8 8 7 6 6 7 7 5
9 9 9 9 9 8 7 7 6 6 6 6 6 6 6 6 6 6 7 7 7 8 8 9 9 10 10 10 10 9 10 11 12
5 5 6 7 7 8 8 8 8 7 7 7 7 6 6 6 7 7 7 7 8 10 10 10 9 11 10 10 11 11 11 11 12
1 1 1 2 3 4 5 6 6 6 6 6 6 7 6 7 7 7 7 6 8 10 9 9 9 11 10 10 10 10 10 11 12
6 6 5 4 3 3 3 4 4 5 5 6 6 7 8 8 8 8 8 7 9 10 10 10 9 10 9 9 9 9 10 10 11
10 10 10 10 9 8 7 6 5 5 6 7 8 9 10 11 11 10 10 10 10 11 10 10 9 9 10 9 10 9 10 10 11
13 14 14 14 14 13 12 11 9 8 8 9 10 12 13 14 14 13 13 12 11 12 11 11 10 10 10 10 10 11 11 12 12
16 16 17 17 17 17 16 14 13 12 11 12 13 16 17 17 16 15 14 13 12 12 12 11 10 10 10 10 11 12 13 14 15
19 19 19 20 20 20 19 17 15 14 14 15 17 19 19 18 17 16 15 14 13 13 12 11 11 10 10 11 11 12 13 14 16
21 21 22 22 22 22 20 18 18 17 17 18 20 18 17 16 16 16 15 14 14 13 13 12 12 11 11 11 12 12 14 15 17
22 23 24 24 23 23 22 20 20 20 20 20 19 19 18 17 16 15 15 15 15 14 14 13 13 13 14 14 15 16 17 18 19
26 25 25 25 24 24 24 23 23 22 21 20 20 19 19 17 16 16 16 16 16 16 16 16 16 16 16 17 18 18 19 21 22
28 27 26 26 25 25 25 25 24 23 23 22 21 20 19 18 17 17 17 17 18 18 18 18 19 19 19 20 21 22 23 23 25
31 30 28 28 26 26 28 27 27 25 24 24 23 21 21 19 19 19 19 20 20 21 21 21 22 22 22 22 24 25 25 26 27
34 33 32 29 28 29 29 28 28 27 27 26 24 24 22 20 20 21 20 21 21 21 24 24 26 26 26 26 27 28 29 30 31
35 33 34 33 33 33 32 31 29 29 28 27 28 27 25 22 22 23 23 23 23 25 27 28 29 30 31 31 32 32 33 34 35
39 38 38 36 36 37 36 35 33 30 32 31 30 35 33 28 29 26 27 30 29 30 31 33 32 33 35 36 36 37 37 38 39
48 43 41 40 41 40 39 37 37 35 36 34 36 38 33 33 28 33 31 32 33 34 33 35 34 35 36 39 41 40 41 42 43
Wind_Direction
38 43 44 45 46 41 48 53 61 75 79 79 74 53 13 350 341 341 330 336 323 324 323 320 353 348 345 335 310 298 301 306 301
47 48 53 57 65 70 71 73 76 74 69 61 51 46 26 8 2 350 337 339 336 329 329 331 327 327 330 331 339 30 36 30 28
46 49 49 52 57 60 65 67 69 60 48 44 38 21 14 1 350 335 330 330 322 315 318 316 314 311 311 309 298 289 276 280 262
47 50 52 53 52 52 55 55 49 43 34 25 20 13 4 360 352 342 332 335 324 315 317 317 315 306 307 303 300 292 282 278 272
40 45 41 44 47 44 43 41 40 37 32 23 16 10 2 357 349 342 338 336 325 315 322 316 313 306 304 302 299 295 288 283 279
259 275 14 25 24 23 18 18 17 16 12 8 1 356 351 348 343 336 334 329 312 310 314 311 309 304 306 305 300 298 294 291 288
257 255 254 258 266 303 327 336 329 334 336 333 331 330 326 325 322 322 320 318 307 310 311 311 308 305 307 306 304 302 299 297 293
259 258 255 254 255 255 256 269 276 292 298 304 307 310 310 309 308 310 311 312 305 307 309 311 313 314 315 313 311 310 306 301 299
255 256 257 259 260 261 260 264 265 271 280 290 297 299 300 300 301 302 303 307 307 307 310 312 317 317 316 316 314 311 307 304 300
248 254 257 257 259 261 264 268 271 275 280 285 289 291 292 291 291 294 298 301 302 301 304 308 314 316 318 322 322 319 316 312 308
247 250 254 256 257 260 263 266 269 274 282 288 292 291 289 287 288 291 294 296 297 299 300 304 309 314 319 322 324 323 321 317 313
249 253 255 255 257 258 259 262 266 273 281 289 293 288 285 282 285 286 288 289 291 290 292 296 299 305 311 314 315 316 317 316 314
250 253 255 256 255 255 256 259 264 273 280 286 288 286 281 278 279 280 281 284 284 283 284 286 291 299 304 309 312 315 316 315 314
249 250 253 254 251 251 253 255 260 270 275 279 282 281 278 275 275 279 281 281 280 280 281 284 289 294 298 302 305 310 312 314 315
249 250 252 251 250 249 252 255 261 268 271 275 276 277 274 271 273 276 280 280 279 279 279 283 286 290 295 299 303 307 309 311 312
249 249 252 250 248 248 250 254 259 265 270 269 273 274 270 270 271 274 280 283 279 277 277 280 282 285 289 294 296 299 301 305 308
255 249 248 251 248 245 247 256 261 261 263 264 265 268 270 272 272 272 277 282 279 277 279 282 282 284 286 289 290 293 297 300 303
259 259 253 250 250 244 245 253 259 260 260 260 260 266 270 271 271 271 274 281 278 276 280 283 283 283 284 286 288 290 293 295 298
261 258 257 254 251 250 250 249 256 258 255 255 256 262 257 264 272 274 275 276 276 277 282 283 281 280 282 284 285 287 289 292 294
260 258 256 256 257 254 252 250 250 253 257 260 266 274 273 261 262 272 280 274 275 276 276 287 277 278 280 282 283 285 287 290 292